Weather History for KSTL - April, 2013

Change the Weather History Date:

Saturday, April 27, 2013

  Actual Average Record
Temperature  
Mean Temperature 52 °F 61 °F  
Max Temperature 54 °F 71 °F 92 °F (1989)
Min Temperature 50 °F 51 °F 34 °F (1967)
Degree Days  
Heating Degree Days 13 6  
Month to date heating degree days 302 255  
Since 1 July heating degree days 4372 4441  
Cooling Degree Days 0 2  
Month to date cooling degree days 24 36  
Year to date cooling degree days 24 43  
Growing Degree Days 2 (Base 50)    
Moisture  
Dew Point 49 °F    
Average Humidity 85    
Maximum Humidity 93    
Minimum Humidity 77    
Precipitation  
Precipitation 0.41 in 0.13 in 1.28 in (1917)
Month to date precipitation 5.66 3.30  
Year to date precipitation 17.00 11.26  
Snow  
Snow 0.00 in 0.00 in 0.00 in (2014)
Month to date snowfall T 0.4  
Since 1 July snowfall 27.9 17.7  
Snow Depth 0.00 in    
Sea Level Pressure  
Sea Level Pressure 30.12 in    
Wind  
Wind Speed 7 mph (East)    
Max Wind Speed 14 mph    
Max Gust Speed 17 mph    
Visibility 5 miles    
Events Rain    
T = Trace of Precipitation, MM = Missing Value Source: NWS Daily Summary

Daily Weather History Graph

Daily Weather History Graph

Search for Another Location

Airport or City:

Trip Planner

Search our weather history database for the weather conditions in past years. The results will help you decide how hot, cold, wet, or windy it might be!

Date:

Astronomy

Apr. 27, 2013 Rise Set
Actual Time 6:08 AM CDT 7:50 PM CDT
Civil Twilight 5:40 AM CDT 8:18 PM CDT
Nautical Twilight 5:05 AM CDT 8:53 PM CDT
Astronomical Twilight 4:29 AM CDT 9:29 PM CDT
Moon 10:18 PM CDT (4/27) 7:28 AM CDT (4/27)
Length of Visible Light 14h 38m
Length of Day
13h 41m
Waning Gibbous, 95% of the Moon is Illuminated
Apr 27
Waning Gibbous
May 2
Last Quarter
May 9
New
May 17
First Quarter
May 24
Full

Hourly Weather History & Observations

Time (CDT) Temp. Dew Point Humidity Pressure Visibility Wind Dir Wind Speed Gust Speed Precip Events Conditions
12:19 AM 51.8 °F 44.6 °F 76% 30.29 in 10.0 mi SSE 10.4 mph - N/A   Overcast
12:49 AM 51.8 °F 44.6 °F 76% 30.28 in 10.0 mi South 8.1 mph - N/A   Overcast
12:51 AM 51.1 °F 44.1 °F 77% 30.28 in 10.0 mi SSE 10.4 mph - N/A   Overcast
1:51 AM 51.1 °F 44.1 °F 77% 30.29 in 10.0 mi South 6.9 mph - N/A   Overcast
2:51 AM 51.1 °F 45.0 °F 80% 30.25 in 10.0 mi SSE 9.2 mph - 0.00 in   Light Drizzle
3:25 AM 51.8 °F 44.6 °F 76% 30.25 in 9.0 mi SSE 6.9 mph - 0.00 in   Light Drizzle
3:51 AM 50.0 °F 46.0 °F 86% 30.23 in 5.0 mi ESE 6.9 mph - 0.00 in   Light Drizzle
4:51 AM 50.0 °F 46.9 °F 89% 30.21 in 5.0 mi ESE 5.8 mph - 0.00 in   Light Drizzle
5:21 AM 50.0 °F 46.4 °F 87% 30.21 in 7.0 mi East 3.5 mph - 0.00 in   Light Drizzle
5:35 AM 50.0 °F 46.4 °F 87% 30.20 in 4.0 mi East 4.6 mph - 0.00 in Rain Light Rain
5:51 AM 50.0 °F 46.9 °F 89% 30.19 in 4.0 mi East 8.1 mph - 0.00 in Rain Light Rain
6:12 AM 50.0 °F 46.4 °F 87% 30.20 in 5.0 mi East 4.6 mph - 0.00 in   Light Drizzle
6:51 AM 50.0 °F 46.9 °F 89% 30.20 in 5.0 mi East 8.1 mph - 0.00 in   Overcast
7:05 AM 50.0 °F 46.4 °F 87% 30.19 in 3.0 mi East 8.1 mph - 0.00 in   Light Drizzle
7:51 AM 50.0 °F 48.0 °F 93% 30.19 in 3.0 mi ESE 10.4 mph - 0.00 in   Light Drizzle
8:36 AM 51.8 °F 48.2 °F 88% 30.18 in 2.5 mi East 8.1 mph - 0.01 in Rain Light Rain
8:51 AM 51.1 °F 48.0 °F 89% 30.17 in 2.5 mi East 8.1 mph - 0.02 in Rain Light Rain
9:11 AM 51.8 °F 48.2 °F 88% 30.16 in 3.0 mi ESE 9.2 mph - 0.02 in Rain Light Rain
9:51 AM 51.1 °F 48.0 °F 89% 30.16 in 3.0 mi East 9.2 mph - 0.05 in Rain Light Rain
10:51 AM 52.0 °F 48.9 °F 89% 30.15 in 3.0 mi East 10.4 mph - 0.06 in Rain Light Rain
11:44 AM 53.6 °F 50.0 °F 88% 30.15 in 4.0 mi ESE 6.9 mph - 0.02 in Rain Light Rain
11:51 AM 53.1 °F 50.0 °F 89% 30.15 in 4.0 mi ESE 6.9 mph - 0.02 in Rain Light Rain
12:51 PM 53.1 °F 50.0 °F 89% 30.13 in 4.0 mi ESE 10.4 mph - 0.01 in   Light Drizzle
1:23 PM 53.6 °F 50.0 °F 88% 30.10 in 5.0 mi East 8.1 mph - 0.00 in   Light Drizzle
1:51 PM 54.0 °F 50.0 °F 86% 30.09 in 6.0 mi East 9.2 mph - 0.00 in   Light Drizzle
2:09 PM 53.6 °F 51.8 °F 94% 30.08 in 4.0 mi East 8.1 mph - 0.00 in   Light Drizzle
2:42 PM 53.6 °F 51.8 °F 94% 30.08 in 3.0 mi East 6.9 mph - 0.00 in   Light Drizzle
2:51 PM 54.0 °F 51.1 °F 90% 30.08 in 3.0 mi East 6.9 mph - 0.00 in   Light Drizzle
3:51 PM 54.0 °F 51.1 °F 90% 30.04 in 3.0 mi NE 6.9 mph - 0.00 in   Light Drizzle
4:23 PM 53.6 °F 51.8 °F 94% 30.03 in 2.0 mi ENE 6.9 mph - 0.00 in   Light Drizzle
4:51 PM 54.0 °F 52.0 °F 93% 30.02 in 1.5 mi ENE 9.2 mph - 0.00 in   Light Drizzle
5:51 PM 54.0 °F 52.0 °F 93% 30.00 in 1.5 mi ENE 8.1 mph - 0.03 in Rain Light Rain
6:51 PM 54.0 °F 52.0 °F 93% 29.99 in 1.5 mi NE 3.5 mph - 0.06 in Rain Light Rain
7:21 PM 53.6 °F 51.8 °F 94% 29.99 in 1.0 mi North 4.6 mph - 0.03 in Rain Rain
7:51 PM 54.0 °F 52.0 °F 93% 29.99 in 1.0 mi NNE 4.6 mph - 0.12 in Rain Light Rain
8:13 PM 53.6 °F 51.8 °F 94% 29.97 in 3.0 mi NNE 6.9 mph - 0.02 in Rain Light Rain
8:25 PM 53.6 °F 51.8 °F 94% 29.97 in 3.0 mi North 5.8 mph - 0.03 in Rain Light Rain
8:51 PM 54.0 °F 51.1 °F 90% 29.97 in 3.0 mi NNW 5.8 mph - 0.04 in Rain Light Rain
9:20 PM 53.6 °F 51.8 °F 94% 29.97 in 5.0 mi North 5.8 mph - 0.00 in Rain Light Rain
9:51 PM 54.0 °F 51.1 °F 90% 29.97 in 9.0 mi NNE 6.9 mph - 0.00 in   Overcast
10:51 PM 53.1 °F 51.1 °F 93% 29.95 in 9.0 mi NNW 8.1 mph - N/A   Overcast
10:57 PM 53.6 °F 51.8 °F 94% 29.95 in 8.0 mi North 6.9 mph - N/A   Overcast
11:51 PM 53.1 °F 51.1 °F 93% 29.94 in 8.0 mi NNW 4.6 mph - N/A   Overcast